Temperature
17 17 17 17 17 17 17 17 17 17 17 18 18 18 18 18 18 18 18 18 18 18 18 18 18 18 18 18 18 18 18 18 18 18 18 18 18 18 18 18 18 18 18
17 17 17 17 17 17 17 17 17 17 17 17 17 18 18 18 18 18 18 18 18 18 18 18 18 18 18 18 18 18 18 18 18 18 18 18 18 18 18 18 18 18 18
17 17 17 17 17 17 17 17 17 17 17 17 17 17 17 18 18 18 18 18 18 18 18 18 18 18 18 18 18 18 18 18 18 18 18 17 17 18 18 18 18 18 18
17 16 16 17 17 17 17 17 17 17 17 17 17 17 17 17 17 17 17 17 17 17 18 18 18 18 18 18 18 18 18 18 18 18 17 17 17 17 18 18 18 18 17
16 16 16 17 17 17 17 17 17 17 17 17 17 17 17 17 17 17 17 17 17 17 17 17 17 18 18 17 17 18 18 18 18 17 17 17 17 17 17 17 17 17 17
16 16 16 17 17 17 17 17 17 17 17 17 17 17 17 17 17 17 17 17 17 17 17 17 17 17 17 17 17 17 17 17 17 17 17 17 17 17 17 17 17 17 17
16 16 16 16 16 16 17 17 17 16 16 17 17 17 17 17 17 17 17 17 17 17 17 17 17 17 17 17 17 17 17 17 17 17 16 16 17 17 17 17 17 17 17
16 16 16 16 16 16 16 17 16 16 16 16 17 17 17 17 17 16 16 16 16 17 17 17 17 17 17 17 17 17 17 17 17 16 16 16 17 17 17 17 17 17 17
16 16 16 16 16 16 16 16 16 16 16 16 16 16 16 16 16 16 16 16 16 16 16 16 16 16 17 17 17 17 17 17 16 16 16 16 16 17 17 17 17 17 17
16 16 16 16 16 16 16 16 16 16 16 16 16 16 16 16 16 16 16 16 16 16 16 16 16 16 16 16 16 16 16 16 16 16 16 16 16 16 16 16 16 16 16
16 16 16 16 16 16 16 16 16 16 16 16 16 16 16 15 16 16 16 16 16 16 16 16 16 16 16 16 16 16 16 16 16 16 16 16 16 16 16 16 16 16 16
17 16 16 16 16 16 16 16 16 16 16 16 15 16 16 15 15 15 16 16 16 16 16 16 16 16 15 15 15 16 16 15 16 15 16 16 16 16 16 16 16 16 16
17 16 16 16 16 16 16 16 16 16 15 15 15 15 15 15 15 15 15 15 15 15 15 15 15 15 15 15 15 15 15 15 15 15 15 16 16 16 16 15 15 16 16
16 16 16 16 16 16 16 16 16 15 15 15 15 15 15 15 15 15 15 15 15 15 15 15 15 15 15 15 15 15 15 15 15 15 15 15 15 15 15 15 15 15 15
16 16 16 16 16 16 16 16 16 15 15 15 15 15 15 15 15 15 15 15 15 15 15 15 15 15 15 15 15 15 15 15 15 15 15 15 15 15 15 15 15 15 15
16 16 16 16 16 16 16 16 15 15 15 15 15 15 15 15 15 15 15 15 15 14 14 14 14 14 14 14 14 15 15 15 15 15 15 15 15 15 15 15 15 15 15
16 16 16 16 16 16 16 16 15 15 15 15 15 15 15 15 15 15 15 15 14 14 14 14 14 14 14 14 14 14 14 14 14 14 14 14 14 14 14 14 14 14 14
16 16 16 16 16 16 15 15 15 15 15 15 15 15 15 15 15 15 14 14 14 14 14 14 14 14 14 14 14 14 14 14 14 14 14 14 14 14 14 14 14 14 14
16 16 16 16 16 16 15 15 15 15 15 15 15 15 15 15 15 14 14 14 14 14 14 14 14 14 14 14 14 14 14 14 14 14 14 14 14 14 14 14 14 14 14
16 16 16 16 15 15 15 15 15 15 15 15 14 14 14 14 14 14 14 14 14 14 14 14 14 14 14 14 14 14 14 14 14 14 14 14 14 14 14 13 13 14 14
16 16 16 16 15 15 15 15 15 15 15 14 14 14 14 14 14 14 14 14 14 14 14 13 14 13 13 13 14 14 14 14 13 13 13 13 13 13 13 13 13 13 13
16 16 16 16 15 15 15 15 15 15 15 14 14 14 14 14 14 14 14 14 14 14 13 13 13 13 13 13 14 14 14 14 13 13 13 13 13 13 13 13 13 13 13
16 16 16 16 15 15 15 15 15 14 14 14 14 14 14 14 14 14 14 14 13 13 13 13 13 13 13 13 13 14 14 14 14 13 13 13 13 13 13 13 13 13 13
16 16 16 16 16 15 15 15 15 14 14 14 14 14 14 14 14 14 14 13 13 13 13 13 13 13 13 13 13 13 13 13 14 14 13 13 13 13 13 13 13 13 13
16 16 16 15 15 15 15 15 15 14 14 14 14 14 14 14 13 13 13 13 13 13 13 13 13 13 13 13 13 13 13 13 13 14 13 13 13 13 13 13 13 13 13
16 16 15 15 15 15 15 15 14 14 14 14 14 14 14 14 13 13 13 13 13 13 13 13 13 12 12 12 12 13 13 13 13 13 13 13 13 12 12 12 12 12 12
Wind_Speed
4 5 7 6 6 7 7 8 8 8 9 9 9 9 9 9 9 9 9 9 9 9 9 9 9 9 9 8 8 8 8 8 8 8 7 8 8 8 7 7 6 7 8
4 5 6 6 7 7 8 7 8 8 9 9 9 9 9 9 9 9 9 10 10 9 10 10 9 8 8 8 8 8 9 8 8 7 7 8 8 8 8 7 6 7 8
5 5 5 7 7 7 8 8 9 9 9 9 9 9 9 9 9 9 10 10 10 10 10 10 10 9 9 9 8 9 8 7 7 6 6 6 8 8 8 8 8 9 9
5 5 7 7 7 8 8 8 9 9 9 10 10 9 9 9 9 9 10 10 10 11 11 10 10 10 10 9 9 9 8 7 5 4 5 6 8 9 8 8 8 8 9
5 6 7 7 8 8 9 9 9 9 10 10 10 10 9 9 9 9 10 10 11 11 11 11 11 10 10 10 10 9 8 7 5 3 5 6 7 9 9 8 8 9 9
6 6 8 7 8 9 10 10 11 11 11 11 11 11 11 9 8 9 10 11 11 11 11 11 10 10 11 10 10 9 8 6 4 6 5 6 7 9 8 8 9 9 9
6 6 8 8 8 9 10 10 10 11 11 11 11 11 11 11 10 10 11 11 11 11 11 11 11 11 11 11 10 9 8 6 5 6 6 6 8 9 9 9 9 9 9
6 7 8 9 9 9 10 10 10 11 11 12 12 13 12 13 13 12 12 12 12 11 11 11 11 11 11 11 10 9 7 5 6 7 7 8 9 9 10 10 10 9 9
6 6 6 7 8 9 10 10 11 11 12 12 12 13 13 13 13 13 12 12 12 12 12 12 12 12 11 11 10 10 8 6 6 6 7 8 10 10 10 10 10 10 9
6 6 6 6 7 7 9 10 9 10 11 12 12 12 11 12 13 13 13 13 12 13 13 13 12 12 12 11 11 9 7 5 7 7 7 9 11 10 10 10 10 10 10
5 4 5 5 6 7 7 8 8 9 9 8 9 8 7 9 10 11 14 13 13 13 13 13 12 11 10 11 10 8 6 6 7 7 8 11 11 11 10 10 10 10 10
5 4 4 5 5 6 6 6 6 6 7 7 7 8 7 8 9 10 12 13 13 12 11 11 9 7 5 7 7 5 6 8 7 7 9 11 10 10 10 10 10 10 10
4 4 4 4 5 5 5 5 5 5 6 6 7 7 7 7 7 7 6 7 8 7 8 8 6 6 7 6 6 7 8 7 7 8 10 12 11 10 10 10 10 10 9
4 4 4 4 4 5 5 5 5 5 5 5 6 7 6 5 6 6 5 6 6 6 6 6 5 7 7 7 7 7 7 6 6 7 10 11 10 10 10 10 10 10 9
4 4 4 3 4 4 5 4 4 5 5 6 5 6 7 5 5 5 5 6 6 6 6 6 6 7 7 7 7 7 7 7 7 7 8 11 10 9 9 10 9 9 9
3 3 4 3 4 3 4 4 5 5 5 5 5 6 7 6 5 5 6 6 6 6 5 5 6 6 6 6 6 7 6 6 6 7 7 9 10 10 9 9 9 9 9
3 3 4 3 3 4 4 4 4 4 4 4 4 5 7 6 6 6 5 5 5 5 5 5 6 5 5 5 6 5 5 6 6 6 6 6 8 11 11 10 9 9 9
3 3 4 3 3 3 3 4 3 4 4 4 4 4 5 6 6 5 5 4 5 4 4 4 4 4 5 4 5 4 4 5 5 6 6 6 7 7 9 11 10 9 8
4 4 4 4 4 4 4 4 4 4 4 4 4 4 4 5 5 5 4 4 4 4 4 4 4 3 4 4 4 4 4 4 4 4 5 6 6 6 6 8 9 9 8
4 4 4 4 4 4 4 3 3 3 3 3 3 3 4 4 4 4 3 4 4 3 3 3 4 3 3 3 3 4 4 3 3 4 4 5 5 5 5 5 5 6 8
5 4 5 5 5 4 3 3 3 3 2 3 2 3 3 3 3 4 3 4 3 3 2 3 3 3 2 2 2 3 3 3 4 3 3 3 4 4 4 4 4 4 5
5 5 5 4 4 4 3 3 2 3 2 2 2 2 2 3 3 3 3 3 2 2 2 2 2 1 1 1 1 0 1 3 3 3 3 2 3 3 3 4 4 4 4
6 5 5 4 4 4 4 3 3 3 2 3 2 2 1 2 2 2 2 2 2 1 1 1 1 1 1 1 1 2 1 1 2 2 2 2 2 2 2 3 3 3 3
6 6 5 5 5 4 4 4 4 3 3 2 2 2 2 2 2 2 1 1 1 1 1 0 0 0 1 0 1 1 2 2 1 1 1 1 1 1 1 1 1 2 2
7 6 5 6 5 4 4 4 4 3 2 2 2 2 2 2 1 1 1 0 0 1 0 0 0 1 1 1 1 1 1 1 2 1 0 1 1 1 1 1 1 1 2
6 6 6 6 5 5 5 5 5 4 3 3 3 2 2 1 1 1 0 0 0 0 0 0 0 0 1 1 1 1 1 1 1 1 1 1 0 1 1 1 1 1 1
Wind_Direction
24 24 28 18 34 42 49 50 52 59 62 66 70 69 68 64 66 68 71 78 85 92 98 98 98 97 95 93 94 94 98 102 107 110 115 118 117 115 116 118 126 116 113
31 38 46 30 37 47 55 55 57 61 63 62 67 70 70 70 70 72 74 77 83 89 94 94 92 90 89 93 92 90 96 99 104 113 122 124 117 115 114 106 95 96 108
48 52 62 42 42 50 55 58 60 62 65 64 68 69 69 70 71 74 77 78 82 87 90 92 93 90 87 87 90 90 94 96 102 114 130 120 114 111 110 106 101 100 105
58 56 56 47 46 51 57 59 60 61 65 66 66 66 66 68 74 74 75 77 81 83 86 89 88 85 83 84 84 85 87 89 93 123 112 101 105 104 102 101 102 101 102
67 62 64 49 54 60 61 60 61 64 66 66 64 64 65 64 68 73 76 79 81 83 83 85 85 83 81 81 81 82 82 84 89 98 93 97 99 101 103 98 100 100 100
75 67 68 54 59 64 63 62 63 65 66 66 64 63 62 61 66 81 82 81 81 83 84 84 85 83 80 79 79 78 77 79 94 87 92 99 100 100 102 100 100 98 98
78 72 73 61 62 64 64 64 65 66 65 64 62 59 56 56 74 88 88 84 82 82 82 82 82 82 79 78 77 75 72 65 74 84 89 93 95 100 104 101 98 97 97
79 77 78 78 69 64 64 66 67 67 65 64 62 59 57 59 74 84 85 83 83 81 79 81 81 80 78 76 76 72 62 44 81 84 85 90 97 102 103 101 99 97 93
82 77 73 76 82 81 72 67 68 66 65 64 63 61 60 64 71 77 79 80 80 79 78 78 78 78 77 75 73 69 62 49 71 83 88 88 99 103 100 99 98 95 91
84 76 72 68 66 73 83 76 69 67 66 67 64 63 66 73 76 77 77 75 76 76 76 77 76 76 76 73 69 65 62 64 74 82 81 89 98 101 101 101 99 94 90
87 78 71 66 65 67 73 80 80 82 76 79 78 72 66 68 70 74 68 70 74 74 74 76 76 76 81 80 71 63 59 62 70 73 77 86 95 98 101 102 98 95 91
104 92 78 72 71 73 74 78 72 72 71 65 64 63 60 62 63 67 74 71 72 76 79 77 82 85 77 78 81 76 67 64 65 72 77 84 91 96 98 99 98 96 94
106 94 85 79 78 78 80 74 71 70 67 66 62 65 66 68 69 66 70 77 73 72 71 78 80 68 69 67 63 67 65 62 64 69 77 81 85 90 94 93 91 90 91
108 97 88 83 85 82 82 78 76 74 71 69 64 63 64 62 60 62 64 64 65 64 65 66 68 72 72 72 69 70 71 68 67 71 72 75 77 84 91 92 89 89 87
115 104 93 91 87 83 82 81 81 76 74 76 68 62 66 66 65 63 65 64 63 65 69 68 67 68 71 68 67 69 72 71 72 73 76 73 71 75 85 90 88 89 88
127 114 109 104 98 93 93 91 81 79 81 76 73 68 68 70 70 69 68 62 59 61 65 72 72 70 72 75 72 71 69 71 70 72 75 80 73 68 74 79 84 86 86
133 125 120 117 113 106 97 90 88 86 85 81 78 69 69 69 72 72 70 67 63 62 63 67 72 74 76 80 77 69 66 63 64 65 67 70 74 71 66 67 77 82 83
145 133 128 130 127 115 107 105 100 94 85 83 80 68 67 70 75 77 75 72 70 67 65 62 63 71 74 73 75 71 71 73 67 65 69 70 67 69 73 68 65 70 76
152 143 139 139 138 129 121 115 107 103 94 87 82 72 64 67 71 78 73 71 73 69 66 70 66 66 72 68 72 74 68 71 73 72 74 73 73 74 74 77 69 61 62
161 152 142 142 143 137 134 125 113 103 100 88 78 71 64 65 69 77 79 77 79 82 79 84 84 75 71 69 70 70 72 79 78 71 67 68 66 68 67 66 76 78 67
165 162 152 152 150 147 143 143 137 129 122 101 80 71 70 68 73 77 78 79 76 83 88 92 87 92 82 77 91 91 91 85 81 78 70 68 69 65 65 56 50 58 78
173 169 162 156 154 156 153 153 151 138 134 114 104 90 76 75 77 77 77 85 90 93 98 92 93 89 88 43 17 73 139 135 100 93 87 77 72 73 63 55 48 42 41
183 179 174 167 161 165 159 151 148 138 143 138 133 106 80 73 80 75 70 81 84 90 94 109 127 103 82 85 13 346 341 58 117 112 91 97 79 72 70 52 43 38 44
187 187 183 174 170 167 161 167 170 175 166 162 156 144 150 120 94 79 76 71 91 76 88 125 145 232 306 330 39 349 350 6 306 150 130 98 76 67 70 85 51 37 38
181 184 186 177 174 171 173 177 194 192 180 168 168 166 165 143 128 110 82 68 95 118 78 39 335 287 279 313 324 329 347 316 293 286 184 149 134 97 73 61 61 46 38
176 180 184 183 180 180 185 192 203 198 192 181 185 188 187 171 182 177 176 235 264 257 238 212 209 289 307 310 298 295 292 291 293 295 266 235 165 124 139 109 91 72 49
Height
1521 1519 1516 1515 1514 1513 1513 1511 1511 1510 1509 1508 1507 1506 1505 1505 1504 1504 1503 1502 1502 1503 1503 1504 1505 1506 1507 1507 1507 1508 1508 1509 1510 1511 1511 1512 1513 1514 1515 1515 1516 1517 1517
1521 1519 1518 1516 1516 1515 1514 1513 1512 1511 1510 1509 1508 1507 1507 1506 1506 1505 1504 1504 1503 1504 1505 1506 1506 1507 1508 1508 1509 1509 1509 1510 1511 1511 1512 1513 1514 1515 1516 1516 1517 1517 1518
1522 1521 1519 1518 1517 1516 1515 1514 1513 1513 1512 1511 1510 1509 1508 1508 1507 1506 1506 1505 1505 1505 1506 1507 1508 1509 1509 1510 1510 1510 1510 1511 1512 1513 1514 1515 1515 1515 1516 1517 1518 1518 1519
1523 1522 1521 1519 1518 1517 1516 1516 1515 1514 1513 1512 1511 1510 1509 1509 1508 1508 1507 1507 1507 1507 1508 1509 1509 1510 1510 1511 1511 1511 1512 1512 1513 1514 1515 1516 1516 1516 1517 1518 1518 1519 1520
1524 1523 1522 1521 1520 1519 1518 1517 1516 1515 1514 1513 1512 1512 1510 1509 1508 1508 1508 1509 1509 1509 1509 1510 1511 1511 1512 1512 1512 1513 1513 1513 1514 1515 1516 1516 1516 1517 1518 1519 1519 1520 1521
1525 1524 1523 1522 1521 1520 1520 1519 1518 1517 1516 1515 1514 1513 1511 1508 1506 1507 1509 1510 1511 1511 1511 1512 1512 1513 1513 1513 1513 1514 1514 1514 1515 1516 1516 1517 1517 1517 1518 1519 1520 1521 1522
1526 1526 1525 1523 1522 1522 1521 1520 1519 1519 1518 1517 1516 1514 1511 1506 1501 1504 1509 1511 1512 1513 1513 1514 1514 1514 1514 1514 1514 1515 1515 1515 1516 1516 1517 1517 1518 1518 1519 1520 1521 1522 1522
1528 1527 1526 1525 1524 1523 1523 1522 1521 1520 1519 1518 1517 1516 1513 1508 1505 1507 1511 1513 1514 1515 1515 1515 1516 1516 1516 1516 1516 1516 1516 1516 1517 1517 1518 1518 1518 1519 1520 1521 1522 1523 1523
1529 1528 1528 1528 1526 1525 1524 1524 1523 1522 1521 1521 1519 1518 1516 1514 1512 1513 1515 1516 1516 1517 1517 1517 1517 1517 1518 1518 1517 1517 1517 1517 1518 1518 1519 1519 1519 1520 1521 1522 1523 1524 1524
1530 1530 1530 1529 1529 1528 1527 1526 1525 1524 1524 1523 1522 1521 1519 1519 1518 1518 1518 1518 1519 1519 1519 1519 1519 1519 1519 1519 1519 1519 1519 1519 1519 1520 1520 1521 1521 1522 1522 1523 1524 1525 1526
1531 1531 1531 1531 1530 1529 1529 1528 1527 1526 1526 1525 1524 1523 1523 1523 1522 1522 1521 1521 1520 1520 1520 1520 1521 1521 1521 1521 1521 1521 1521 1521 1521 1521 1522 1522 1523 1523 1524 1525 1525 1526 1527
1532 1532 1532 1532 1531 1531 1530 1530 1529 1529 1528 1528 1527 1526 1526 1525 1524 1524 1523 1523 1522 1522 1522 1522 1522 1523 1522 1523 1523 1523 1523 1523 1523 1523 1523 1523 1524 1525 1526 1526 1527 1527 1528
1533 1533 1533 1533 1533 1533 1532 1532 1531 1530 1530 1530 1529 1529 1528 1528 1527 1527 1526 1526 1525 1525 1525 1524 1525 1525 1524 1525 1525 1525 1525 1525 1525 1525 1525 1525 1526 1527 1527 1528 1528 1528 1529
1534 1534 1534 1534 1534 1534 1534 1533 1533 1533 1532 1532 1532 1531 1531 1530 1530 1529 1528 1528 1527 1527 1526 1526 1526 1526 1526 1527 1527 1527 1527 1527 1527 1527 1527 1527 1528 1528 1529 1529 1529 1530 1530
1535 1535 1535 1535 1535 1535 1535 1535 1535 1534 1534 1534 1533 1533 1533 1532 1532 1531 1531 1530 1529 1529 1528 1528 1528 1528 1528 1528 1529 1529 1529 1529 1529 1529 1529 1529 1530 1530 1530 1530 1530 1531 1531
1535 1536 1536 1536 1536 1536 1536 1536 1536 1536 1535 1535 1535 1535 1535 1534 1534 1533 1533 1532 1531 1531 1530 1530 1530 1530 1530 1530 1530 1530 1531 1531 1531 1531 1531 1531 1531 1531 1531 1531 1531 1532 1532
1535 1536 1536 1536 1537 1537 1537 1537 1537 1537 1537 1537 1537 1537 1536 1536 1535 1535 1534 1534 1533 1533 1533 1532 1532 1531 1531 1531 1531 1532 1532 1532 1533 1533 1533 1533 1533 1533 1532 1532 1532 1533 1533
1536 1536 1536 1536 1537 1537 1538 1538 1538 1538 1538 1538 1538 1538 1538 1537 1537 1536 1536 1535 1535 1534 1534 1534 1533 1533 1533 1533 1533 1533 1533 1533 1534 1534 1534 1534 1534 1534 1534 1533 1533 1533 1533
1536 1536 1536 1537 1537 1538 1538 1538 1538 1539 1538 1539 1539 1538 1539 1539 1538 1538 1537 1537 1536 1536 1536 1535 1535 1535 1535 1534 1534 1534 1534 1535 1535 1535 1536 1536 1536 1535 1535 1535 1534 1534 1534
1535 1536 1537 1537 1537 1538 1538 1539 1539 1539 1539 1539 1539 1539 1539 1539 1539 1539 1538 1538 1538 1537 1537 1537 1536 1536 1536 1536 1536 1536 1536 1536 1536 1536 1536 1536 1536 1536 1536 1536 1536 1535 1535
1535 1535 1536 1537 1537 1538 1538 1538 1539 1539 1539 1540 1539 1540 1540 1540 1539 1539 1539 1539 1538 1538 1538 1538 1537 1537 1537 1537 1538 1538 1537 1537 1537 1536 1537 1537 1537 1537 1537 1537 1537 1537 1537
1534 1535 1536 1536 1537 1538 1538 1539 1539 1539 1540 1540 1540 1540 1540 1540 1540 1540 1540 1539 1539 1538 1538 1538 1538 1538 1538 1538 1538 1538 1538 1539 1538 1537 1537 1537 1537 1537 1537 1537 1537 1537 1537
1532 1533 1534 1535 1536 1537 1537 1538 1538 1539 1540 1540 1540 1540 1540 1540 1540 1540 1540 1540 1539 1539 1539 1538 1538 1538 1538 1538 1538 1539 1538 1538 1539 1539 1538 1538 1537 1537 1537 1537 1537 1537 1537
1531 1532 1534 1535 1535 1536 1537 1537 1538 1539 1539 1540 1540 1540 1540 1540 1540 1540 1540 1540 1539 1539 1539 1538 1538 1538 1538 1539 1538 1538 1539 1538 1538 1539 1539 1538 1537 1537 1537 1537 1537 1537 1537
1529 1531 1532 1534 1535 1535 1536 1537 1538 1538 1539 1539 1540 1540 1540 1540 1540 1540 1540 1540 1539 1539 1539 1538 1538 1538 1538 1538 1538 1538 1538 1537 1538 1538 1538 1538 1538 1537 1537 1536 1536 1536 1536
1528 1529 1531 1532 1533 1534 1535 1536 1537 1537 1538 1538 1539 1539 1539 1539 1539 1539 1539 1539 1539 1539 1538 1538 1538 1538 1537 1537 1537 1537 1537 1537 1537 1537 1537 1537 1537 1537 1536 1536 1536 1535 1535